Location: Newark
(33.6439°N, 114.9881°W)
Time: 04:18:17
(UTC+00:00)

Tiros 1 - All Passes

Search period start: 21 July 2019 00:00
Search period end: 31 July 2019 00:00
Orbit: 630 x 664 km, 48.4° (Epoch: 19 July)

Date Brightness Start Highest point End Pass type
(mag) Time Alt. Az. Time Alt. Az. Time Alt. Az.
21 Jul - 01:28:58 10° NW 01:33:27 38° NNE 01:37:53 10° E daylight
21 Jul - 03:11:13 10° WNW 03:15:39 38° SW 03:20:01 10° SSE visible
21 Jul - 17:22:29 10° SSE 17:25:06 15° SE 17:27:43 10° E daylight
21 Jul - 19:02:00 10° SW 19:06:47 84° NW 19:11:38 10° NE daylight
21 Jul - 20:45:49 10° WNW 20:49:33 22° NNW 20:53:18 10° NNE daylight
21 Jul - 22:30:49 10° NNW 22:33:13 13° N 22:35:36 10° NNE daylight
22 Jul - 00:13:12 10° NNW 00:16:54 21° NNE 00:20:33 10° ENE daylight
22 Jul - 01:54:52 10° NW 01:59:41 80° NE 02:04:26 10° SE daylight
22 Jul - 03:38:39 10° W 03:41:23 15° SW 03:44:08 10° SSW visible
22 Jul - 17:46:28 10° SSW 17:50:50 37° SE 17:55:15 10° ENE daylight
22 Jul - 19:28:31 10° W 19:33:01 39° NNW 19:37:33 10° NE daylight
22 Jul - 21:13:22 10° NW 21:16:16 16° NNW 21:19:10 10° NNE daylight
22 Jul - 22:57:18 10° NNW 23:00:05 15° N 23:02:51 10° NE daylight
23 Jul - 00:38:59 10° NW 00:43:25 35° NNE 00:47:48 10° E daylight
23 Jul - 02:21:09 10° WNW 02:25:40 42° SW 02:30:08 10° SSE daylight
23 Jul - 16:32:56 10° SSE 16:35:08 13° SE 16:37:21 10° E daylight
23 Jul - 18:12:00 10° SW 18:16:46 89° S 18:21:37 10° NE daylight
23 Jul - 19:55:40 10° WNW 19:59:29 23° NNW 20:03:20 10° NNE daylight
23 Jul - 21:40:43 10° NNW 21:43:07 14° N 21:45:31 10° NNE daylight
23 Jul - 23:23:13 10° NNW 23:26:49 20° NNE 23:30:25 10° ENE daylight
24 Jul - 01:04:52 10° NW 01:09:41 74° NE 01:14:25 10° ESE daylight
24 Jul - 02:48:22 10° W 02:51:26 17° SW 02:54:29 10° S daylight
24 Jul - 16:56:36 10° SSW 17:00:51 33° SE 17:05:09 10° ENE daylight
24 Jul - 18:38:26 10° WSW 18:42:59 42° NNW 18:47:33 10° NE daylight
24 Jul - 20:23:12 10° NW 20:26:11 16° NNW 20:29:10 10° NNE daylight
24 Jul - 22:07:17 10° NNW 22:10:00 15° N 22:12:42 10° NE daylight
24 Jul - 23:49:00 10° NW 23:53:22 33° NNE 23:57:42 10° E daylight
25 Jul - 01:31:05 10° WNW 01:35:41 47° SW 01:40:14 10° SSE daylight
25 Jul - 15:43:31 10° SSE 15:45:11 12° SE 15:46:51 10° ESE daylight
25 Jul - 17:22:01 10° SW 17:26:46 83° SE 17:31:36 10° NE daylight
25 Jul - 19:05:32 10° WNW 19:09:26 24° NNW 19:13:20 10° NNE daylight
25 Jul - 20:50:37 10° NNW 20:53:02 14° N 20:55:27 10° NNE daylight
25 Jul - 22:33:14 10° NNW 22:36:45 20° NNE 22:40:16 10° ENE daylight
26 Jul - 00:14:52 10° NW 00:19:40 68° NE 00:24:24 10° ESE daylight
26 Jul - 01:58:08 10° W 02:01:29 19° SW 02:04:47 10° S daylight
26 Jul - 16:06:44 10° SSW 16:10:53 30° SE 16:15:03 10° ENE daylight
26 Jul - 17:48:22 10° WSW 17:52:57 45° NNW 17:57:34 10° NE daylight
26 Jul - 19:33:03 10° NW 19:36:06 16° NNW 19:39:10 10° NNE daylight
26 Jul - 21:17:16 10° NNW 21:19:55 14° N 21:22:33 10° NE daylight
26 Jul - 22:59:01 10° NW 23:03:19 31° NNE 23:07:36 10° E daylight
27 Jul - 00:41:02 10° WNW 00:45:42 52° SW 00:50:19 10° SSE daylight
27 Jul - 14:54:32 10° SE 14:55:13 10° SE 14:55:55 10° ESE daylight
27 Jul - 16:32:02 10° SW 16:36:46 76° SE 16:41:34 10° NE daylight
27 Jul - 18:15:24 10° W 18:19:22 25° NNW 18:23:21 10° NNE daylight
27 Jul - 20:00:30 10° NW 20:02:56 14° N 20:05:23 10° NNE daylight
27 Jul - 21:43:15 10° NNW 21:46:42 19° NNE 21:50:07 10° ENE daylight
27 Jul - 23:24:51 10° NW 23:29:39 62° NE 23:34:23 10° ESE daylight
28 Jul - 01:07:57 10° W 01:11:31 21° SW 01:15:02 10° S daylight
28 Jul - 15:16:55 10° S 15:20:54 28° SE 15:24:56 10° ENE daylight
28 Jul - 16:58:18 10° WSW 17:02:54 49° NNW 17:07:34 10° NE daylight
28 Jul - 18:42:54 10° NW 18:46:01 17° NNW 18:49:10 10° NNE daylight
28 Jul - 20:27:14 10° NNW 20:29:49 14° N 20:32:24 10° NE daylight
28 Jul - 22:09:02 10° NW 22:13:16 30° NNE 22:17:29 10° E daylight
28 Jul - 23:50:59 10° WNW 23:55:42 57° SW 00:00:23 10° SE daylight
29 Jul - 15:42:05 10° SW 15:46:46 69° SE 15:51:32 10° NE daylight
29 Jul - 17:25:17 10° W 17:29:19 26° NNW 17:33:23 10° NNE daylight
29 Jul - 19:10:23 10° NW 19:12:51 14° N 19:15:19 10° NNE daylight
29 Jul - 20:53:16 10° NNW 20:56:37 18° NNE 20:59:57 10° ENE daylight
29 Jul - 22:34:52 10° NW 22:39:37 57° NE 22:44:20 10° ESE daylight
30 Jul - 00:17:46 10° W 00:21:32 23° SW 00:25:16 10° S daylight
30 Jul - 14:27:06 10° S 14:30:56 25° SE 14:34:49 10° ENE daylight
30 Jul - 16:08:16 10° WSW 16:12:53 53° NW 16:17:35 10° NE daylight
30 Jul - 17:52:45 10° WNW 17:55:57 17° NNW 17:59:10 10° NNE daylight
30 Jul - 19:37:12 10° NNW 19:39:44 14° N 19:42:15 10° NE daylight
30 Jul - 21:19:04 10° NW 21:23:13 28° NNE 21:27:22 10° E daylight
30 Jul - 23:00:57 10° WNW 23:05:42 63° SW 23:10:26 10° SE daylight
